Location: Arrington
(35.8681°N, 86.7092°W)
Time: 21:33:01
(UTC+00:00)

ATLAS 2AS CENTAUR R/B - Pass Details

Date: 27 February 2020
Orbit: 929 x 1283 km, 63.7° (Epoch: 05 April)

Event Time Altitude Azimuth Distance (km) Brightness Sun altitude
Rises 11:17:28 0° 330° (NNW) 4,142 5.5 -13.5°
Reaches altitude 10° 11:20:21 10° 333° (NNW) 3,131 4.9 -12.9°
Maximum altitude 11:27:49 70° 57° (ENE) 1,188 3.1 -11.4°
Drops below altitude 10° 11:34:36 10° 140° (SE) 2,858 5.6 -10.0°
Sets 11:37:07 0° 143° (SE) 3,761 6.2 -9.5°
